Погода в Казьминском

Россия / Ставропольский край     44°35′21″N   41°40′34″E
темп.,
°C
ветер,
м/с
пор.,
м/с
влажн.,
%
обл.,
%
осадки,
мм/ч
давл.,
гПа
погр.,
м
9 марта, вт
вт900:00−3ю34811 0.0 101853
03:00−3ююз228020 0.0 101826
06:00−5ююз338135 0.0 101831
09:00−2ююз237624 0.0 1017130
12:00+1сз23800 0.0 1016353
15:00+1зсз478313 0.0 1016675
18:00−1зсз489699 0.6 1019491
21:00−1зюз489799 1.9 1021431
10 марта, ср
ср1000:00−2зсз4795100 2.0 1022469
03:00−4зсз4796100 2.7 1023523
06:00−5з4794100 0.3 1024309
09:00−3з3588100 0.3 1025403
12:00−2сз2282100 0.1 1023640
15:00−1св2179100 0.1 1022591
18:00−2всв3484100 0.0 1021306
21:00−3в5982100 0.0 1021429
11 марта, чт
чт1100:00−3в61179100 0.0 1020636
03:00−4в71284100 0.1 1019601
06:00−4в71195100 1.3 1018594
09:00−4в81392100 2.5 1018766
12:00−4в91392100 1.1 1017966
15:00−4в101492100 2.5 10171061
18:00−6всв101593100 1.7 10171088
21:00−8в101592100 2.9 10181045
12 марта, пт
пт1200:00−8в91593100 1.1 1019982
03:00−9в91493100 2.5 1020967
06:00−10в91392100 1.1 1022897
09:00−9в91389100 1.6 1023871
12:00−8в81286100 0.1 1024976
15:00−7в81185100 0.2 1024956
18:00−9в61189100 0.1 1027633
21:00−11в4119395 0.1 1029397
13 марта, сб
сб1300:00−11в4119246 0.0 1029321
03:00−14вюв349537 0.0 103079
06:00−15вюв33920 0.0 103048
09:00−10вюв358631 0.0 1030195
12:00−4вюв34802 0.0 1028297
15:00−2в338513 0.0 1026290
18:00−6в239214 0.0 102637
21:00−8вюв239135 0.0 102628